Time,TemperatureF,DewpointF,PressureIn,WindDirection,WindDirectionDegrees,WindSpeedMPH,WindSpeedGustMPH,Humidity,HourlyPrecipIn,Conditions,Clouds,dailyrainin,SoftwareType,DateUTC
2013-06-20 00:01:00,58.3,52.8,30.12,North,360,0.0,0.0,82,0.00,,---,0.00,VWS V13.01,2013-06-20 04:01:00,
2013-06-20 00:06:00,58.1,52.6,30.12,North,360,0.0,0.0,82,0.00,,---,0.00,VWS V13.01,2013-06-20 04:06:00,
2013-06-20 00:11:00,57.9,52.8,30.13,North,360,0.0,0.0,83,0.00,,---,0.00,VWS V13.01,2013-06-20 04:11:00,
2013-06-20 00:16:00,57.7,52.6,30.13,North,360,0.0,0.0,83,0.00,,---,0.00,VWS V13.01,2013-06-20 04:16:00,
2013-06-20 00:21:00,57.6,52.8,30.13,North,360,0.0,0.0,84,0.00,,---,0.00,VWS V13.01,2013-06-20 04:21:00,
2013-06-20 00:26:00,57.5,52.7,30.13,North,360,0.0,0.0,84,0.00,,---,0.00,VWS V13.01,2013-06-20 04:26:00,
2013-06-20 00:31:00,57.3,52.5,30.13,North,360,0.0,0.0,84,0.00,,---,0.00,VWS V13.01,2013-06-20 04:31:00,
2013-06-20 00:36:00,57.2,52.4,30.13,North,360,0.0,0.0,84,0.00,,---,0.00,VWS V13.01,2013-06-20 04:36:00,
2013-06-20 00:41:00,57.1,52.6,30.13,North,360,0.0,0.0,85,0.00,,---,0.00,VWS V13.01,2013-06-20 04:41:00,
2013-06-20 00:46:00,57.0,52.5,30.13,North,360,0.0,0.0,85,0.00,,---,0.00,VWS V13.01,2013-06-20 04:46:00,
2013-06-20 00:51:00,56.9,52.4,30.13,North,360,0.0,0.0,85,0.00,,---,0.00,VWS V13.01,2013-06-20 04:51:00,
2013-06-20 00:56:00,56.8,52.3,30.13,North,360,0.0,0.0,85,0.00,,---,0.00,VWS V13.01,2013-06-20 04:56:00,
2013-06-20 01:01:00,56.6,52.2,30.13,North,360,0.0,0.0,85,0.00,,---,0.00,VWS V13.01,2013-06-20 05:01:00,
2013-06-20 01:06:00,56.6,51.8,30.13,North,360,0.0,0.0,84,0.00,,---,0.00,VWS V13.01,2013-06-20 05:06:00,
2013-06-20 01:11:00,56.4,51.6,30.13,North,360,0.0,1.0,84,0.00,,---,0.00,VWS V13.01,2013-06-20 05:11:00,
2013-06-20 01:16:00,56.4,51.6,30.13,North,360,0.0,1.0,84,0.00,,---,0.00,VWS V13.01,2013-06-20 05:16:00,
2013-06-20 01:21:00,56.3,51.9,30.13,North,360,0.0,1.0,85,0.00,,---,0.00,VWS V13.01,2013-06-20 05:21:00,
2013-06-20 01:26:00,56.1,51.3,30.13,North,360,0.0,1.0,84,0.00,,---,0.00,VWS V13.01,2013-06-20 05:26:00,
2013-06-20 01:31:00,56.0,51.2,30.14,North,360,0.0,0.0,84,0.00,,---,0.00,VWS V13.01,2013-06-20 05:31:00,
2013-06-20 01:36:00,55.8,51.4,30.14,North,360,0.0,0.0,85,0.00,,---,0.00,VWS V13.01,2013-06-20 05:36:00,
2013-06-20 01:41:00,55.7,51.3,30.14,North,360,0.0,0.0,85,0.00,,---,0.00,VWS V13.01,2013-06-20 05:41:00,
2013-06-20 01:46:00,55.5,51.4,30.14,North,360,0.0,0.0,86,0.00,,---,0.00,VWS V13.01,2013-06-20 05:46:00,
2013-06-20 01:51:00,55.4,51.3,30.13,North,360,0.0,0.0,86,0.00,,---,0.00,VWS V13.01,2013-06-20 05:51:00,
2013-06-20 01:56:00,55.3,51.2,30.14,North,360,0.0,0.0,86,0.00,,---,0.00,VWS V13.01,2013-06-20 05:56:00,
2013-06-20 02:01:00,55.2,51.1,30.14,North,360,0.0,0.0,86,0.00,,---,0.00,VWS V13.01,2013-06-20 06:01:00,
2013-06-20 02:06:00,55.1,51.0,30.14,North,360,0.0,1.0,86,0.00,,---,0.00,VWS V13.01,2013-06-20 06:06:00,
2013-06-20 02:11:00,55.0,51.2,30.14,North,360,0.0,1.0,87,0.00,,---,0.00,VWS V13.01,2013-06-20 06:11:00,
2013-06-20 02:16:00,54.9,51.1,30.14,North,360,0.0,1.0,87,0.00,,---,0.00,VWS V13.01,2013-06-20 06:16:00,
2013-06-20 02:21:00,54.8,51.0,30.14,North,360,0.0,1.0,87,0.00,,---,0.00,VWS V13.01,2013-06-20 06:21:00,
2013-06-20 02:26:00,54.7,50.9,30.13,North,360,0.0,1.0,87,0.00,,---,0.00,VWS V13.01,2013-06-20 06:26:00,
2013-06-20 02:31:00,54.6,50.8,30.14,North,360,0.0,0.0,87,0.00,,---,0.00,VWS V13.01,2013-06-20 06:31:00,
2013-06-20 02:36:00,54.5,50.7,30.14,North,360,0.0,0.0,87,0.00,,---,0.00,VWS V13.01,2013-06-20 06:36:00,
2013-06-20 02:41:00,54.4,50.9,30.13,North,360,0.0,0.0,88,0.00,,---,0.00,VWS V13.01,2013-06-20 06:41:00,
2013-06-20 02:46:00,54.3,50.8,30.13,North,360,0.0,0.0,88,0.00,,---,0.00,VWS V13.01,2013-06-20 06:46:00,
2013-06-20 02:51:00,54.2,50.7,30.13,North,360,0.0,0.0,88,0.00,,---,0.00,VWS V13.01,2013-06-20 06:51:00,
2013-06-20 02:56:00,54.1,50.6,30.13,North,360,0.0,0.0,88,0.00,,---,0.00,VWS V13.01,2013-06-20 06:56:00,
2013-06-20 03:01:00,54.0,50.5,30.13,North,360,0.0,0.0,88,0.00,,---,0.00,VWS V13.01,2013-06-20 07:01:00,
2013-06-20 03:06:00,53.9,50.7,30.13,North,360,0.0,0.0,89,0.00,,---,0.00,VWS V13.01,2013-06-20 07:06:00,
2013-06-20 03:11:00,53.7,50.2,30.13,North,360,0.0,0.0,88,0.00,,---,0.00,VWS V13.01,2013-06-20 07:11:00,
2013-06-20 03:16:00,53.6,50.4,30.13,North,360,0.0,0.0,89,0.00,,---,0.00,VWS V13.01,2013-06-20 07:16:00,
2013-06-20 03:21:00,53.5,50.3,30.14,North,360,0.0,0.0,89,0.00,,---,0.00,VWS V13.01,2013-06-20 07:21:00,
2013-06-20 03:26:00,53.4,50.5,30.13,North,360,0.0,0.0,90,0.00,,---,0.00,VWS V13.01,2013-06-20 07:26:00,
2013-06-20 03:31:00,53.3,50.5,30.14,North,360,0.0,0.0,90,0.00,,---,0.00,VWS V13.01,2013-06-20 07:31:00,
2013-06-20 03:36:00,53.2,50.3,30.14,North,360,0.0,0.0,90,0.00,,---,0.00,VWS V13.01,2013-06-20 07:36:00,
2013-06-20 03:41:00,53.2,50.3,30.14,North,360,0.0,0.0,90,0.00,,---,0.00,VWS V13.01,2013-06-20 07:41:00,
2013-06-20 03:46:00,53.2,50.7,30.14,North,360,0.0,0.0,91,0.00,,---,0.00,VWS V13.01,2013-06-20 07:46:00,
2013-06-20 03:51:00,53.2,50.7,30.14,North,360,0.0,1.0,91,0.00,,---,0.00,VWS V13.01,2013-06-20 07:51:00,
2013-06-20 03:56:00,53.1,50.5,30.14,North,360,0.0,1.0,91,0.00,,---,0.00,VWS V13.01,2013-06-20 07:56:00,
2013-06-20 04:01:00,53.1,50.5,30.14,North,360,0.0,0.0,91,0.00,,---,0.00,VWS V13.01,2013-06-20 08:01:00,
2013-06-20 04:06:00,53.0,50.5,30.14,North,360,0.0,0.0,91,0.00,,---,0.00,VWS V13.01,2013-06-20 08:06:00,
2013-06-20 04:11:00,52.9,50.3,30.14,North,360,0.0,1.0,91,0.00,,---,0.00,VWS V13.01,2013-06-20 08:11:00,
2013-06-20 04:16:00,52.8,50.2,30.14,North,360,0.0,1.0,91,0.00,,---,0.00,VWS V13.01,2013-06-20 08:16:00,
2013-06-20 04:21:00,52.8,50.2,30.14,North,360,0.0,1.0,91,0.00,,---,0.00,VWS V13.01,2013-06-20 08:21:00,
2013-06-20 04:26:00,52.7,50.2,30.14,North,360,0.0,1.0,91,0.00,,---,0.00,VWS V13.01,2013-06-20 08:26:00,
2013-06-20 04:31:00,52.6,50.0,30.14,North,360,0.0,0.0,91,0.00,,---,0.00,VWS V13.01,2013-06-20 08:31:00,
2013-06-20 04:36:00,52.5,50.0,30.14,North,360,0.0,0.0,91,0.00,,---,0.00,VWS V13.01,2013-06-20 08:36:00,
2013-06-20 04:41:00,52.4,49.8,30.14,North,360,0.0,0.0,91,0.00,,---,0.00,VWS V13.01,2013-06-20 08:41:00,
2013-06-20 04:46:00,52.2,49.7,30.14,North,360,0.0,0.0,91,0.00,,---,0.00,VWS V13.01,2013-06-20 08:46:00,
2013-06-20 04:51:00,52.1,49.6,30.14,North,360,0.0,0.0,91,0.00,,---,0.00,VWS V13.01,2013-06-20 08:51:00,
2013-06-20 04:57:00,52.0,49.8,30.14,North,360,0.0,1.0,92,0.00,,---,0.00,VWS V13.01,2013-06-20 08:57:00,
2013-06-20 05:02:00,51.9,49.7,30.15,North,360,0.0,0.0,92,0.00,,---,0.00,VWS V13.01,2013-06-20 09:02:00,
2013-06-20 05:07:00,51.8,49.5,30.15,North,360,0.0,0.0,92,0.00,,---,0.00,VWS V13.01,2013-06-20 09:07:00,
2013-06-20 05:12:00,51.8,49.5,30.15,North,360,0.0,0.0,92,0.00,,---,0.00,VWS V13.01,2013-06-20 09:12:00,
2013-06-20 05:17:00,51.7,49.5,30.15,North,360,0.0,0.0,92,0.00,,---,0.00,VWS V13.01,2013-06-20 09:17:00,
2013-06-20 05:22:00,51.7,49.5,30.15,North,360,0.0,0.0,92,0.00,,---,0.00,VWS V13.01,2013-06-20 09:22:00,
2013-06-20 05:27:00,51.6,49.4,30.15,North,360,0.0,0.0,92,0.00,,---,0.00,VWS V13.01,2013-06-20 09:27:00,
2013-06-20 05:32:00,51.6,49.4,30.16,North,360,0.0,0.0,92,0.00,,---,0.00,VWS V13.01,2013-06-20 09:32:00,
2013-06-20 05:37:00,51.6,49.7,30.16,North,360,0.0,0.0,93,0.00,,---,0.00,VWS V13.01,2013-06-20 09:37:00,
2013-06-20 05:42:00,51.6,49.7,30.16,North,360,0.0,0.0,93,0.00,,---,0.00,VWS V13.01,2013-06-20 09:42:00,
2013-06-20 05:47:00,51.6,49.7,30.16,North,360,0.0,0.0,93,0.00,,---,0.00,VWS V13.01,2013-06-20 09:47:00,
2013-06-20 05:52:00,51.7,49.8,30.17,North,360,0.0,0.0,93,0.00,,---,0.00,VWS V13.01,2013-06-20 09:52:00,
2013-06-20 05:57:00,51.7,49.8,30.17,North,360,0.0,0.0,93,0.00,,---,0.00,VWS V13.01,2013-06-20 09:57:00,
2013-06-20 06:02:00,51.8,49.8,30.17,North,360,0.0,0.0,93,0.00,,---,0.00,VWS V13.01,2013-06-20 10:02:00,
2013-06-20 06:07:00,51.9,49.9,30.17,North,360,0.0,1.0,93,0.00,,---,0.00,VWS V13.01,2013-06-20 10:07:00,
2013-06-20 06:12:00,51.9,49.9,30.17,North,360,0.0,1.0,93,0.00,,---,0.00,VWS V13.01,2013-06-20 10:12:00,
2013-06-20 06:17:00,51.9,49.9,30.17,North,360,0.0,1.0,93,0.00,,---,0.00,VWS V13.01,2013-06-20 10:17:00,
2013-06-20 06:22:00,51.9,49.9,30.17,North,360,0.0,1.0,93,0.00,,---,0.00,VWS V13.01,2013-06-20 10:22:00,
2013-06-20 06:27:00,52.0,50.3,30.17,North,360,0.0,1.0,94,0.00,,---,0.00,VWS V13.01,2013-06-20 10:27:00,
2013-06-20 06:32:00,52.1,50.4,30.17,North,360,0.0,0.0,94,0.00,,---,0.00,VWS V13.01,2013-06-20 10:32:00,
2013-06-20 06:37:00,52.2,50.5,30.17,North,360,0.0,0.0,94,0.00,,---,0.00,VWS V13.01,2013-06-20 10:37:00,
2013-06-20 06:42:00,52.2,50.5,30.17,North,360,0.0,0.0,94,0.00,,---,0.00,VWS V13.01,2013-06-20 10:42:00,
2013-06-20 06:47:00,52.3,50.6,30.17,North,360,0.0,0.0,94,0.00,,---,0.00,VWS V13.01,2013-06-20 10:47:00,
2013-06-20 06:52:00,52.4,50.7,30.17,North,360,0.0,0.0,94,0.00,,---,0.00,VWS V13.01,2013-06-20 10:52:00,
2013-06-20 06:57:00,52.8,51.1,30.17,North,360,0.0,1.0,94,0.00,,---,0.00,VWS V13.01,2013-06-20 10:57:00,
2013-06-20 07:02:00,53.4,51.7,30.17,North,360,0.0,0.0,94,0.00,,---,0.00,VWS V13.01,2013-06-20 11:02:00,
2013-06-20 07:07:00,53.9,51.9,30.17,North,360,0.0,1.0,93,0.00,,---,0.00,VWS V13.01,2013-06-20 11:07:00,
2013-06-20 07:12:00,54.5,52.5,30.18,North,360,0.0,1.0,93,0.00,,---,0.00,VWS V13.01,2013-06-20 11:12:00,
2013-06-20 07:17:00,55.1,52.8,30.18,North,360,0.0,1.0,92,0.00,,---,0.00,VWS V13.01,2013-06-20 11:17:00,
2013-06-20 07:22:00,55.8,53.2,30.18,North,360,0.0,1.0,91,0.00,,---,0.00,VWS V13.01,2013-06-20 11:22:00,
2013-06-20 07:27:00,56.6,53.4,30.18,North,360,0.0,1.0,89,0.00,,---,0.00,VWS V13.01,2013-06-20 11:27:00,
2013-06-20 07:32:00,57.3,53.8,30.18,North,360,0.0,1.0,88,0.00,,---,0.00,VWS V13.01,2013-06-20 11:32:00,
2013-06-20 07:37:00,57.8,54.0,30.19,North,360,0.0,1.0,87,0.00,,---,0.00,VWS V13.01,2013-06-20 11:37:00,
2013-06-20 07:42:00,58.2,54.0,30.19,North,360,1.0,3.0,86,0.00,,---,0.00,VWS V13.01,2013-06-20 11:42:00,
2013-06-20 07:47:00,58.5,54.0,30.19,North,9,2.0,3.0,85,0.00,,---,0.00,VWS V13.01,2013-06-20 11:47:00,
2013-06-20 07:52:00,59.1,54.9,30.19,North,9,0.0,3.0,86,0.00,,---,0.00,VWS V13.01,2013-06-20 11:52:00,
2013-06-20 07:57:00,60.0,55.5,30.19,North,9,0.0,3.0,85,0.00,,---,0.00,VWS V13.01,2013-06-20 11:57:00,
2013-06-20 08:02:00,60.9,55.4,30.19,North,9,0.0,1.0,82,0.00,,---,0.00,VWS V13.01,2013-06-20 12:02:00,
2013-06-20 08:07:00,61.8,55.9,30.19,North,9,0.0,1.0,81,0.00,,---,0.00,VWS V13.01,2013-06-20 12:07:00,
2013-06-20 08:12:00,62.8,56.9,30.19,North,9,0.0,1.0,81,0.00,,---,0.00,VWS V13.01,2013-06-20 12:12:00,
2013-06-20 08:17:00,63.8,57.2,30.19,North,9,1.0,1.0,79,0.00,,---,0.00,VWS V13.01,2013-06-20 12:17:00,
2013-06-20 08:22:00,64.5,57.1,30.19,North,9,0.0,1.0,77,0.00,,---,0.00,VWS V13.01,2013-06-20 12:22:00,
2013-06-20 08:27:00,65.2,57.8,30.19,North,9,0.0,2.0,77,0.00,,---,0.00,VWS V13.01,2013-06-20 12:27:00,
2013-06-20 08:32:00,65.6,57.8,30.19,North,9,1.0,2.0,76,0.00,,---,0.00,VWS V13.01,2013-06-20 12:32:00,
2013-06-20 08:37:00,65.7,57.9,30.20,North,9,1.0,2.0,76,0.00,,---,0.00,VWS V13.01,2013-06-20 12:37:00,
2013-06-20 08:42:00,66.5,58.7,30.20,North,9,0.0,2.0,76,0.00,,---,0.00,VWS V13.01,2013-06-20 12:42:00,
2013-06-20 08:47:00,67.3,58.7,30.20,North,9,0.0,2.0,74,0.00,,---,0.00,VWS V13.01,2013-06-20 12:47:00,
2013-06-20 08:52:00,68.0,58.7,30.20,North,9,1.0,2.0,72,0.00,,---,0.00,VWS V13.01,2013-06-20 12:52:00,
2013-06-20 08:57:00,68.8,59.8,30.20,North,9,0.0,2.0,73,0.00,,---,0.00,VWS V13.01,2013-06-20 12:57:00,
2013-06-20 09:02:00,69.7,60.3,30.20,North,9,0.0,1.0,72,0.00,,---,0.00,VWS V13.01,2013-06-20 13:02:00,
2013-06-20 09:07:00,70.3,60.1,30.20,NNE,13,1.0,3.0,70,0.00,,---,0.00,VWS V13.01,2013-06-20 13:07:00,
2013-06-20 09:12:00,70.9,60.2,30.20,NNE,13,0.0,3.0,69,0.00,,---,0.00,VWS V13.01,2013-06-20 13:12:00,
2013-06-20 09:17:00,71.2,60.1,30.20,North,355,0.0,3.0,68,0.00,,---,0.00,VWS V13.01,2013-06-20 13:17:00,
2013-06-20 09:22:00,71.0,59.9,30.20,North,355,0.0,3.0,68,0.00,,---,0.00,VWS V13.01,2013-06-20 13:22:00,
2013-06-20 09:27:00,71.3,61.4,30.20,North,355,1.0,3.0,71,0.00,,---,0.00,VWS V13.01,2013-06-20 13:27:00,
2013-06-20 09:32:00,71.9,60.8,30.20,NNE,12,1.0,1.0,68,0.00,,---,0.00,VWS V13.01,2013-06-20 13:32:00,
2013-06-20 09:37:00,72.4,61.2,30.20,South,182,1.0,3.0,68,0.00,,---,0.00,VWS V13.01,2013-06-20 13:37:00,
2013-06-20 09:42:00,72.8,61.6,30.20,SSW,207,2.0,3.0,68,0.00,,---,0.00,VWS V13.01,2013-06-20 13:42:00,
2013-06-20 09:47:00,72.9,60.5,30.20,West,266,0.0,3.0,65,0.00,,---,0.00,VWS V13.01,2013-06-20 13:47:00,
2013-06-20 09:52:00,72.9,60.5,30.20,WNW,298,0.0,3.0,65,0.00,,---,0.00,VWS V13.01,2013-06-20 13:52:00,
2013-06-20 09:57:00,73.1,61.5,30.20,SSW,211,0.0,3.0,67,0.00,,---,0.00,VWS V13.01,2013-06-20 13:57:00,
2013-06-20 10:02:00,73.6,62.0,30.20,WNW,297,1.0,2.0,67,0.00,,---,0.00,VWS V13.01,2013-06-20 14:02:00,
2013-06-20 10:07:00,74.0,61.5,30.20,WNW,298,1.0,2.0,65,0.00,,---,0.00,VWS V13.01,2013-06-20 14:07:00,
2013-06-20 10:12:00,74.0,60.2,30.20,NW,322,2.0,3.0,62,0.00,,---,0.00,VWS V13.01,2013-06-20 14:12:00,
2013-06-20 10:17:00,74.2,60.4,30.20,ENE,63,0.0,3.0,62,0.00,,---,0.00,VWS V13.01,2013-06-20 14:17:00,
2013-06-20 10:22:00,74.5,57.3,30.20,NNW,337,4.0,5.0,55,0.00,,---,0.00,VWS V13.01,2013-06-20 14:22:00,
2013-06-20 10:27:00,74.7,59.0,30.20,NNW,343,2.0,5.0,58,0.00,,---,0.00,VWS V13.01,2013-06-20 14:27:00,
2013-06-20 10:32:00,74.8,58.1,30.20,NNW,337,2.0,7.0,56,0.00,,---,0.00,VWS V13.01,2013-06-20 14:32:00,
2013-06-20 10:37:00,74.8,54.9,30.20,WNW,293,0.0,7.0,50,0.00,,---,0.00,VWS V13.01,2013-06-20 14:37:00,
2013-06-20 10:42:00,74.9,53.9,30.21,NW,325,1.0,7.0,48,0.00,,---,0.00,VWS V13.01,2013-06-20 14:42:00,
2013-06-20 10:47:00,74.9,57.2,30.20,WNW,285,1.0,7.0,54,0.00,,---,0.00,VWS V13.01,2013-06-20 14:47:00,
2013-06-20 10:52:00,74.8,53.8,30.21,North,5,3.0,7.0,48,0.00,,---,0.00,VWS V13.01,2013-06-20 14:52:00,
2013-06-20 10:57:00,74.9,55.0,30.21,NNW,327,0.0,7.0,50,0.00,,---,0.00,VWS V13.01,2013-06-20 14:57:00,
2013-06-20 11:02:00,75.2,54.2,30.21,NW,305,3.0,5.0,48,0.00,,---,0.00,VWS V13.01,2013-06-20 15:02:00,
2013-06-20 11:07:00,75.3,53.1,30.21,NNW,344,4.0,5.0,46,0.00,,---,0.00,VWS V13.01,2013-06-20 15:07:00,
2013-06-20 11:12:00,75.4,54.9,30.21,NNW,330,0.0,5.0,49,0.00,,---,0.00,VWS V13.01,2013-06-20 15:12:00,
2013-06-20 11:17:00,75.9,53.7,30.21,NW,318,2.0,5.0,46,0.00,,---,0.00,VWS V13.01,2013-06-20 15:17:00,
2013-06-20 11:22:00,76.1,53.2,30.21,NNE,15,5.0,6.0,45,0.00,,---,0.00,VWS V13.01,2013-06-20 15:22:00,
2013-06-20 11:27:00,76.3,55.2,30.21,ENE,68,4.0,6.0,48,0.00,,---,0.00,VWS V13.01,2013-06-20 15:27:00,
2013-06-20 11:32:00,76.4,56.4,30.21,NNW,342,2.0,4.0,50,0.00,,---,0.00,VWS V13.01,2013-06-20 15:32:00,
2013-06-20 11:37:00,76.6,53.7,30.21,West,267,4.0,6.0,45,0.00,,---,0.00,VWS V13.01,2013-06-20 15:37:00,
2013-06-20 11:42:00,76.4,52.3,30.21,SW,225,0.0,6.0,43,0.00,,---,0.00,VWS V13.01,2013-06-20 15:42:00,
2013-06-20 11:47:00,76.4,54.7,30.21,SW,229,3.0,6.0,47,0.00,,---,0.00,VWS V13.01,2013-06-20 15:47:00,
2013-06-20 11:52:00,76.5,53.6,30.21,West,259,5.0,8.0,45,0.00,,---,0.00,VWS V13.01,2013-06-20 15:52:00,
2013-06-20 11:57:00,76.4,54.1,30.21,South,172,3.0,8.0,46,0.00,,---,0.00,VWS V13.01,2013-06-20 15:57:00,
2013-06-20 12:02:00,76.7,53.2,30.20,South,180,0.0,2.0,44,0.00,,---,0.00,VWS V13.01,2013-06-20 16:02:00,
2013-06-20 12:07:00,77.0,54.1,30.20,SW,236,4.0,5.0,45,0.00,,---,0.00,VWS V13.01,2013-06-20 16:07:00,
2013-06-20 12:12:00,77.2,55.4,30.20,WNW,300,2.0,8.0,47,0.00,,---,0.00,VWS V13.01,2013-06-20 16:12:00,
2013-06-20 12:17:00,77.3,54.9,30.20,West,273,2.0,8.0,46,0.00,,---,0.00,VWS V13.01,2013-06-20 16:17:00,
2013-06-20 12:22:00,77.3,54.9,30.20,SW,218,1.0,8.0,46,0.00,,---,0.00,VWS V13.01,2013-06-20 16:22:00,
2013-06-20 12:27:00,77.4,55.0,30.20,North,350,1.0,8.0,46,0.00,,---,0.00,VWS V13.01,2013-06-20 16:27:00,
2013-06-20 12:32:00,77.6,56.4,30.19,West,263,0.0,4.0,48,0.00,,---,0.00,VWS V13.01,2013-06-20 16:32:00,
2013-06-20 12:37:00,77.8,57.1,30.20,SW,233,4.0,6.0,49,0.00,,---,0.00,VWS V13.01,2013-06-20 16:37:00,
2013-06-20 12:42:00,78.1,56.8,30.19,South,179,3.0,8.0,48,0.00,,---,0.00,VWS V13.01,2013-06-20 16:42:00,
2013-06-20 12:47:00,78.3,55.8,30.19,SSE,159,3.0,9.0,46,0.00,,---,0.00,VWS V13.01,2013-06-20 16:47:00,
2013-06-20 12:52:00,78.5,56.6,30.19,SW,217,7.0,11.0,47,0.00,,---,0.00,VWS V13.01,2013-06-20 16:52:00,
2013-06-20 12:57:00,78.6,56.1,30.19,South,169,4.0,11.0,46,0.00,,---,0.00,VWS V13.01,2013-06-20 16:57:00,
2013-06-20 13:02:00,78.5,56.6,30.19,SSW,205,2.0,5.0,47,0.00,,---,0.00,VWS V13.01,2013-06-20 17:02:00,
2013-06-20 13:07:00,78.7,56.2,30.19,SSE,153,2.0,6.0,46,0.00,,---,0.00,VWS V13.01,2013-06-20 17:07:00,
2013-06-20 13:12:00,78.8,56.9,30.19,West,266,4.0,7.0,47,0.00,,---,0.00,VWS V13.01,2013-06-20 17:12:00,
2013-06-20 13:17:00,78.9,55.2,30.19,West,275,6.0,9.0,44,0.00,,---,0.00,VWS V13.01,2013-06-20 17:17:00,
2013-06-20 13:22:00,78.8,54.4,30.18,SW,221,4.0,12.0,43,0.00,,---,0.00,VWS V13.01,2013-06-20 17:22:00,
2013-06-20 13:27:00,79.0,57.1,30.18,SW,225,4.0,12.0,47,0.00,,---,0.00,VWS V13.01,2013-06-20 17:27:00,
2013-06-20 13:32:00,79.2,56.0,30.18,SW,214,2.0,5.0,45,0.00,,---,0.00,VWS V13.01,2013-06-20 17:32:00,
2013-06-20 13:37:00,79.6,57.0,30.18,SSE,162,4.0,7.0,46,0.00,,---,0.00,VWS V13.01,2013-06-20 17:37:00,
2013-06-20 13:42:00,80.0,55.5,30.18,SSE,162,2.0,10.0,43,0.00,,---,0.00,VWS V13.01,2013-06-20 17:42:00,
2013-06-20 13:47:00,80.0,57.4,30.18,SW,223,5.0,10.0,46,0.00,,---,0.00,VWS V13.01,2013-06-20 17:47:00,
2013-06-20 13:52:00,80.2,57.0,30.17,SW,219,7.0,11.0,45,0.00,,---,0.00,VWS V13.01,2013-06-20 17:52:00,
2013-06-20 13:57:00,79.8,55.3,30.17,SW,235,3.0,11.0,43,0.00,,---,0.00,VWS V13.01,2013-06-20 17:57:00,
2013-06-20 14:02:00,79.6,56.4,30.18,WSW,242,4.0,7.0,45,0.00,,---,0.00,VWS V13.01,2013-06-20 18:02:00,
2013-06-20 14:07:00,79.5,56.3,30.17,NW,321,0.0,7.0,45,0.00,,---,0.00,VWS V13.01,2013-06-20 18:07:00,
2013-06-20 14:12:00,79.7,57.1,30.17,West,267,2.0,7.0,46,0.00,,---,0.00,VWS V13.01,2013-06-20 18:12:00,
2013-06-20 14:17:00,80.0,55.5,30.17,WSW,240,6.0,9.0,43,0.00,,---,0.00,VWS V13.01,2013-06-20 18:17:00,
2013-06-20 14:22:00,79.9,56.7,30.17,West,273,7.0,9.0,45,0.00,,---,0.00,VWS V13.01,2013-06-20 18:22:00,
2013-06-20 14:27:00,80.0,57.4,30.17,SW,215,3.0,10.0,46,0.00,,---,0.00,VWS V13.01,2013-06-20 18:27:00,
2013-06-20 14:32:00,80.1,55.6,30.17,West,268,2.0,7.0,43,0.00,,---,0.00,VWS V13.01,2013-06-20 18:32:00,
2013-06-20 14:37:00,80.4,57.1,30.17,SW,222,5.0,7.0,45,0.00,,---,0.00,VWS V13.01,2013-06-20 18:37:00,
2013-06-20 14:42:00,80.8,56.9,30.17,WSW,240,4.0,8.0,44,0.00,,---,0.00,VWS V13.01,2013-06-20 18:42:00,
2013-06-20 14:47:00,81.1,55.9,30.17,West,273,3.0,8.0,42,0.00,,---,0.00,VWS V13.01,2013-06-20 18:47:00,
2013-06-20 14:52:00,81.2,58.5,30.16,SW,221,1.0,9.0,46,0.00,,---,0.00,VWS V13.01,2013-06-20 18:52:00,
2013-06-20 14:57:00,81.3,59.2,30.16,West,265,2.0,9.0,47,0.00,,---,0.00,VWS V13.01,2013-06-20 18:57:00,
2013-06-20 15:02:00,81.6,58.8,30.16,South,181,1.0,2.0,46,0.00,,---,0.00,VWS V13.01,2013-06-20 19:02:00,
2013-06-20 15:07:00,82.1,57.4,30.16,West,279,1.0,5.0,43,0.00,,---,0.00,VWS V13.01,2013-06-20 19:07:00,
2013-06-20 15:12:00,82.3,56.3,30.16,WSW,240,9.0,11.0,41,0.00,,---,0.00,VWS V13.01,2013-06-20 19:12:00,
2013-06-20 15:17:00,81.8,56.5,30.16,SSW,211,7.0,11.0,42,0.00,,---,0.00,VWS V13.01,2013-06-20 19:17:00,
2013-06-20 15:22:00,81.6,57.0,30.16,South,191,4.0,11.0,43,0.00,,---,0.00,VWS V13.01,2013-06-20 19:22:00,
2013-06-20 15:27:00,81.9,56.6,30.16,SSW,201,7.0,11.0,42,0.00,,---,0.00,VWS V13.01,2013-06-20 19:27:00,
2013-06-20 15:32:00,82.0,56.7,30.16,SW,227,1.0,8.0,42,0.00,,---,0.00,VWS V13.01,2013-06-20 19:32:00,
2013-06-20 15:37:00,82.1,57.4,30.16,WSW,256,1.0,8.0,43,0.00,,---,0.00,VWS V13.01,2013-06-20 19:37:00,
2013-06-20 15:42:00,82.4,59.0,30.16,SW,217,4.0,8.0,45,0.00,,---,0.00,VWS V13.01,2013-06-20 19:42:00,
2013-06-20 15:47:00,82.4,56.4,30.16,SW,224,4.0,8.0,41,0.00,,---,0.00,VWS V13.01,2013-06-20 19:47:00,
2013-06-20 15:52:00,82.5,56.5,30.16,WNW,294,0.0,8.0,41,0.00,,---,0.00,VWS V13.01,2013-06-20 19:52:00,
2013-06-20 15:57:00,82.5,57.8,30.16,SW,225,3.0,8.0,43,0.00,,---,0.00,VWS V13.01,2013-06-20 19:57:00,
2013-06-20 16:02:00,82.7,56.0,30.16,SW,230,2.0,4.0,40,0.00,,---,0.00,VWS V13.01,2013-06-20 20:02:00,
2013-06-20 16:07:00,82.8,57.4,30.16,SSW,210,4.0,8.0,42,0.00,,---,0.00,VWS V13.01,2013-06-20 20:07:00,
2013-06-20 16:12:00,82.6,57.2,30.17,WSW,247,1.0,8.0,42,0.00,,---,0.00,VWS V13.01,2013-06-20 20:12:00,
2013-06-20 16:18:00,82.4,56.4,30.17,WSW,250,1.0,11.0,41,0.00,,---,0.00,VWS V13.01,2013-06-20 20:18:00,
2013-06-20 16:23:00,82.4,57.0,30.17,SW,232,6.0,11.0,42,0.00,,---,0.00,VWS V13.01,2013-06-20 20:23:00,
2013-06-20 16:28:00,82.5,57.1,30.16,WSW,237,3.0,11.0,42,0.00,,---,0.00,VWS V13.01,2013-06-20 20:28:00,
2013-06-20 16:33:00,82.5,57.8,30.16,West,267,3.0,5.0,43,0.00,,---,0.00,VWS V13.01,2013-06-20 20:33:00,
2013-06-20 16:38:00,82.7,58.6,30.16,WSW,252,4.0,6.0,44,0.00,,---,0.00,VWS V13.01,2013-06-20 20:38:00,
2013-06-20 16:43:00,82.9,57.5,30.16,WSW,247,2.0,9.0,42,0.00,,---,0.00,VWS V13.01,2013-06-20 20:43:00,
2013-06-20 16:48:00,82.7,56.6,30.16,SW,229,4.0,9.0,41,0.00,,---,0.00,VWS V13.01,2013-06-20 20:48:00,
2013-06-20 16:53:00,82.7,58.0,30.16,SSW,201,0.0,9.0,43,0.00,,---,0.00,VWS V13.01,2013-06-20 20:53:00,
2013-06-20 16:58:00,83.0,55.5,30.16,WSW,258,4.0,10.0,39,0.00,,---,0.00,VWS V13.01,2013-06-20 20:58:00,
2013-06-20 17:03:00,82.9,55.4,30.17,WNW,284,1.0,10.0,39,0.00,,---,0.00,VWS V13.01,2013-06-20 21:03:00,
2013-06-20 17:08:00,83.1,56.3,30.16,SW,230,1.0,10.0,40,0.00,,---,0.00,VWS V13.01,2013-06-20 21:08:00,
2013-06-20 17:13:00,83.5,55.2,30.16,WNW,284,2.0,10.0,38,0.00,,---,0.00,VWS V13.01,2013-06-20 21:13:00,
2013-06-20 17:18:00,83.4,56.6,30.17,WSW,243,2.0,10.0,40,0.00,,---,0.00,VWS V13.01,2013-06-20 21:18:00,
2013-06-20 17:23:00,82.9,54.0,30.17,SW,228,0.0,10.0,37,0.00,,---,0.00,VWS V13.01,2013-06-20 21:23:00,
2013-06-20 17:28:00,82.7,56.0,30.17,SW,234,2.0,10.0,40,0.00,,---,0.00,VWS V13.01,2013-06-20 21:28:00,
2013-06-20 17:33:00,82.5,55.1,30.17,NNW,332,1.0,5.0,39,0.00,,---,0.00,VWS V13.01,2013-06-20 21:33:00,
2013-06-20 17:38:00,82.5,56.5,30.17,West,260,5.0,7.0,41,0.00,,---,0.00,VWS V13.01,2013-06-20 21:38:00,
2013-06-20 17:43:00,82.7,58.0,30.17,WSW,243,1.0,7.0,43,0.00,,---,0.00,VWS V13.01,2013-06-20 21:43:00,
2013-06-20 17:48:00,82.6,55.9,30.16,West,271,0.0,8.0,40,0.00,,---,0.00,VWS V13.01,2013-06-20 21:48:00,
2013-06-20 17:53:00,82.6,56.5,30.16,NW,304,2.0,8.0,41,0.00,,---,0.00,VWS V13.01,2013-06-20 21:53:00,
2013-06-20 17:58:00,82.3,55.6,30.16,NW,317,1.0,8.0,40,0.00,,---,0.00,VWS V13.01,2013-06-20 21:58:00,
2013-06-20 18:03:00,82.1,55.4,30.16,WNW,292,2.0,5.0,40,0.00,,---,0.00,VWS V13.01,2013-06-20 22:03:00,
2013-06-20 18:08:00,81.7,56.4,30.16,WSW,244,2.0,5.0,42,0.00,,---,0.00,VWS V13.01,2013-06-20 22:08:00,
2013-06-20 18:13:00,81.6,56.3,30.16,SW,226,1.0,5.0,42,0.00,,---,0.00,VWS V13.01,2013-06-20 22:13:00,
2013-06-20 18:18:00,81.5,55.5,30.17,WNW,294,3.0,5.0,41,0.00,,---,0.00,VWS V13.01,2013-06-20 22:18:00,
2013-06-20 18:23:00,81.6,55.6,30.16,West,271,0.0,5.0,41,0.00,,---,0.00,VWS V13.01,2013-06-20 22:23:00,
2013-06-20 18:28:00,81.6,55.6,30.16,NNW,344,6.0,6.0,41,0.00,,---,0.00,VWS V13.01,2013-06-20 22:28:00,
2013-06-20 18:33:00,81.3,55.4,30.16,North,360,3.0,5.0,41,0.00,,---,0.00,VWS V13.01,2013-06-20 22:33:00,
2013-06-20 18:38:00,80.9,54.3,30.16,NNW,337,5.0,7.0,40,0.00,,---,0.00,VWS V13.01,2013-06-20 22:38:00,
2013-06-20 18:43:00,80.6,54.1,30.16,NNW,335,2.0,7.0,40,0.00,,---,0.00,VWS V13.01,2013-06-20 22:43:00,
2013-06-20 18:48:00,80.6,56.1,30.16,NNW,334,1.0,7.0,43,0.00,,---,0.00,VWS V13.01,2013-06-20 22:48:00,
2013-06-20 18:53:00,80.6,55.4,30.16,North,360,4.0,7.0,42,0.00,,---,0.00,VWS V13.01,2013-06-20 22:53:00,
2013-06-20 18:58:00,80.2,54.4,30.16,North,355,4.0,7.0,41,0.00,,---,0.00,VWS V13.01,2013-06-20 22:58:00,
2013-06-20 19:03:00,79.8,55.3,30.17,NNE,31,1.0,4.0,43,0.00,,---,0.00,VWS V13.01,2013-06-20 23:03:00,
2013-06-20 19:08:00,79.6,55.8,30.17,North,351,0.0,6.0,44,0.00,,---,0.00,VWS V13.01,2013-06-20 23:08:00,
2013-06-20 19:13:00,79.4,55.6,30.17,North,351,0.0,6.0,44,0.00,,---,0.00,VWS V13.01,2013-06-20 23:13:00,
2013-06-20 19:18:00,79.5,55.7,30.17,NNE,19,1.0,6.0,44,0.00,,---,0.00,VWS V13.01,2013-06-20 23:18:00,
2013-06-20 19:23:00,79.7,55.2,30.17,North,355,4.0,6.0,43,0.00,,---,0.00,VWS V13.01,2013-06-20 23:23:00,
2013-06-20 19:28:00,79.8,56.6,30.17,NW,304,1.0,6.0,45,0.00,,---,0.00,VWS V13.01,2013-06-20 23:28:00,
2013-06-20 19:33:00,80.0,55.5,30.17,North,350,3.0,4.0,43,0.00,,---,0.00,VWS V13.01,2013-06-20 23:33:00,
2013-06-20 19:38:00,80.0,55.5,30.17,North,350,2.0,4.0,43,0.00,,---,0.00,VWS V13.01,2013-06-20 23:38:00,
2013-06-20 19:43:00,79.9,54.1,30.17,North,350,1.0,4.0,41,0.00,,---,0.00,VWS V13.01,2013-06-20 23:43:00,
2013-06-20 19:48:00,80.1,54.3,30.16,North,355,2.0,4.0,41,0.00,,---,0.00,VWS V13.01,2013-06-20 23:48:00,
2013-06-20 19:53:00,80.0,54.9,30.17,North,355,0.0,4.0,42,0.00,,---,0.00,VWS V13.01,2013-06-20 23:53:00,
2013-06-20 19:58:00,80.0,54.2,30.16,NW,317,0.0,4.0,41,0.00,,---,0.00,VWS V13.01,2013-06-20 23:58:00,
2013-06-20 20:03:00,80.1,53.6,30.16,NW,317,0.0,2.0,40,0.00,,---,0.00,VWS V13.01,2013-06-21 00:03:00,
2013-06-20 20:08:00,80.1,55.0,30.16,NW,317,1.0,3.0,42,0.00,,---,0.00,VWS V13.01,2013-06-21 00:08:00,
2013-06-20 20:13:00,79.9,54.8,30.16,NW,317,0.0,3.0,42,0.00,,---,0.00,VWS V13.01,2013-06-21 00:13:00,
2013-06-20 20:18:00,79.6,55.2,30.16,NW,317,0.0,3.0,43,0.00,,---,0.00,VWS V13.01,2013-06-21 00:18:00,
2013-06-20 20:23:00,79.2,54.8,30.16,NW,317,0.0,3.0,43,0.00,,---,0.00,VWS V13.01,2013-06-21 00:23:00,
2013-06-20 20:28:00,78.7,55.6,30.16,NW,317,0.0,3.0,45,0.00,,---,0.00,VWS V13.01,2013-06-21 00:28:00,
2013-06-20 20:33:00,77.8,56.6,30.17,NW,317,0.0,1.0,48,0.00,,---,0.00,VWS V13.01,2013-06-21 00:33:00,
2013-06-20 20:38:00,76.9,56.9,30.17,NW,317,0.0,1.0,50,0.00,,---,0.00,VWS V13.01,2013-06-21 00:38:00,
2013-06-20 20:43:00,76.2,57.3,30.16,NW,317,0.0,1.0,52,0.00,,---,0.00,VWS V13.01,2013-06-21 00:43:00,
2013-06-20 20:48:00,75.4,57.6,30.16,NW,317,0.0,1.0,54,0.00,,---,0.00,VWS V13.01,2013-06-21 00:48:00,
2013-06-20 20:53:00,74.5,57.8,30.16,NW,317,0.0,1.0,56,0.00,,---,0.00,VWS V13.01,2013-06-21 00:53:00,
2013-06-20 20:58:00,73.8,57.6,30.16,NW,317,0.0,1.0,57,0.00,,---,0.00,VWS V13.01,2013-06-21 00:58:00,
2013-06-20 21:03:00,73.3,57.7,30.16,NW,317,0.0,0.0,58,0.00,,---,0.00,VWS V13.01,2013-06-21 01:03:00,
2013-06-20 21:08:00,72.6,57.9,30.16,NW,317,0.0,0.0,60,0.00,,---,0.00,VWS V13.01,2013-06-21 01:08:00,
2013-06-20 21:13:00,71.9,57.7,30.16,NW,317,0.0,0.0,61,0.00,,---,0.00,VWS V13.01,2013-06-21 01:13:00,
2013-06-20 21:18:00,71.3,57.6,30.16,NW,317,0.0,0.0,62,0.00,,---,0.00,VWS V13.01,2013-06-21 01:18:00,
2013-06-20 21:23:00,70.8,58.5,30.16,NW,317,0.0,1.0,65,0.00,,---,0.00,VWS V13.01,2013-06-21 01:23:00,
2013-06-20 21:28:00,70.2,58.3,30.17,NW,317,0.0,1.0,66,0.00,,---,0.00,VWS V13.01,2013-06-21 01:28:00,
2013-06-20 21:33:00,69.8,58.4,30.17,NW,317,0.0,0.0,67,0.00,,---,0.00,VWS V13.01,2013-06-21 01:33:00,
2013-06-20 21:38:00,69.3,58.3,30.16,NW,317,0.0,1.0,68,0.00,,---,0.00,VWS V13.01,2013-06-21 01:38:00,
2013-06-20 21:43:00,68.9,57.9,30.17,NW,317,0.0,1.0,68,0.00,,---,0.00,VWS V13.01,2013-06-21 01:43:00,
2013-06-20 21:48:00,68.5,57.9,30.17,NW,317,0.0,1.0,69,0.00,,---,0.00,VWS V13.01,2013-06-21 01:48:00,
2013-06-20 21:53:00,68.1,58.0,30.17,NW,317,0.0,1.0,70,0.00,,---,0.00,VWS V13.01,2013-06-21 01:53:00,
2013-06-20 21:58:00,67.7,58.0,30.17,NW,317,0.0,1.0,71,0.00,,---,0.00,VWS V13.01,2013-06-21 01:58:00,
2013-06-20 22:03:00,67.3,58.0,30.18,NW,317,0.0,0.0,72,0.00,,---,0.00,VWS V13.01,2013-06-21 02:03:00,
2013-06-20 22:08:00,66.9,58.0,30.17,NW,317,0.0,0.0,73,0.00,,---,0.00,VWS V13.01,2013-06-21 02:08:00,
2013-06-20 22:13:00,66.6,57.7,30.17,NW,317,0.0,0.0,73,0.00,,---,0.00,VWS V13.01,2013-06-21 02:13:00,
2013-06-20 22:18:00,66.3,57.8,30.17,NW,317,0.0,0.0,74,0.00,,---,0.00,VWS V13.01,2013-06-21 02:18:00,
2013-06-20 22:23:00,66.0,57.9,30.18,NW,317,0.0,0.0,75,0.00,,---,0.00,VWS V13.01,2013-06-21 02:23:00,
2013-06-20 22:28:00,65.8,58.4,30.18,NW,317,0.0,0.0,77,0.00,,---,0.00,VWS V13.01,2013-06-21 02:28:00,
2013-06-20 22:33:00,65.5,58.1,30.18,NW,317,0.0,0.0,77,0.00,,---,0.00,VWS V13.01,2013-06-21 02:33:00,
2013-06-20 22:38:00,65.2,58.2,30.18,NW,317,0.0,0.0,78,0.00,,---,0.00,VWS V13.01,2013-06-21 02:38:00,
2013-06-20 22:43:00,65.0,58.0,30.18,NW,317,0.0,0.0,78,0.00,,---,0.00,VWS V13.01,2013-06-21 02:43:00,
2013-06-20 22:48:00,64.7,58.0,30.18,NW,317,0.0,0.0,79,0.00,,---,0.00,VWS V13.01,2013-06-21 02:48:00,
2013-06-20 22:53:00,64.4,57.8,30.18,NW,317,0.0,0.0,79,0.00,,---,0.00,VWS V13.01,2013-06-21 02:53:00,
2013-06-20 22:58:00,64.1,57.8,30.18,NW,317,0.0,0.0,80,0.00,,---,0.00,VWS V13.01,2013-06-21 02:58:00,
2013-06-20 23:03:00,63.9,58.0,30.18,NW,317,0.0,0.0,81,0.00,,---,0.00,VWS V13.01,2013-06-21 03:03:00,
2013-06-20 23:08:00,63.6,57.7,30.18,NW,317,0.0,0.0,81,0.00,,---,0.00,VWS V13.01,2013-06-21 03:08:00,
2013-06-20 23:13:00,63.3,57.7,30.18,NW,317,0.0,0.0,82,0.00,,---,0.00,VWS V13.01,2013-06-21 03:13:00,
2013-06-20 23:18:00,63.0,57.4,30.18,NW,317,0.0,0.0,82,0.00,,---,0.00,VWS V13.01,2013-06-21 03:18:00,
2013-06-20 23:23:00,62.8,57.6,30.18,NW,317,0.0,0.0,83,0.00,,---,0.00,VWS V13.01,2013-06-21 03:23:00,
2013-06-20 23:28:00,62.6,57.4,30.18,NW,317,0.0,0.0,83,0.00,,---,0.00,VWS V13.01,2013-06-21 03:28:00,
2013-06-20 23:33:00,62.3,57.4,30.18,NW,317,0.0,0.0,84,0.00,,---,0.00,VWS V13.01,2013-06-21 03:33:00,
2013-06-20 23:38:00,62.2,57.3,30.19,NW,317,0.0,0.0,84,0.00,,---,0.00,VWS V13.01,2013-06-21 03:38:00,
2013-06-20 23:43:00,62.0,57.5,30.19,NW,317,0.0,0.0,85,0.00,,---,0.00,VWS V13.01,2013-06-21 03:43:00,
2013-06-20 23:48:00,61.8,57.2,30.19,NW,317,0.0,0.0,85,0.00,,---,0.00,VWS V13.01,2013-06-21 03:48:00,
2013-06-20 23:53:00,61.7,57.2,30.19,NW,317,0.0,0.0,85,0.00,,---,0.00,VWS V13.01,2013-06-21 03:53:00,
2013-06-20 23:58:00,61.5,57.0,30.19,NW,317,0.0,0.0,85,0.00,,---,0.00,VWS V13.01,2013-06-21 03:58:00,